sat.trackr.live / text

‹ back to catalog

STARLINK-30131

NORAD 56833 · 2023-079L

PAYLOAD ACTIVE UNKNOWN

§ Identity

Operator
Country
US
Launch date
2023-06-04
Launch site
AFETR
Launch vehicle
Mass (kg)
RCS (m²)

Purposes: comms

External: N2YO · Heavens-Above · Gunter

§ Orbital elements

Epoch: 2026-05-24T23:35:53.378016Z

Period
94.54 min
Inclination
43.0040°
Eccentricity
0.0003098
Mean motion
15.23240515 rev/d
Perigee alt
493.9 km
Apogee alt
498.2 km
Semi-major
6,874.2 km
B*
8.4669e-4
RAAN
13.5852°
Arg perigee
232.6419°
Mean anomaly
127.4149°
Rev number
16,481

§ Raw data

STARLINK-301311 56833U 23079L   26144.98325669  .00020253  00000+0  84669-3 0  99982 56833  43.0040  13.5852 0003098 232.6419 127.4149 15.23240515164815

JSON: /api/v1/satellites/56833 · /tle

For live sub-satellite position, see the globe view (requires WebGL).

§ Visibility from observer

Set your observer location to see the next 7 days of passes ≥ 10°. The values pass through the URL so the page stays shareable.

No JS? Fill the form by hand. The geolocation button needs JavaScript.